Tracking 35275 objects as of 9-Sep-2026
HD Live streaming from Space Station
objects crossing your sky now

STARLINK-31938

Track STARLINK-31938 now!
10-day predictions
STARLINK-31938 is classified as:


NORAD ID: 59865
Int'l Code: 2024-098H
Launch date: May 24, 2024
Source: United States (US)
Launch site: AIR FORCE EASTERN TEST RANGE (AFETR)
Your satellite tracking list
Your tracking list is empty




NASA's NSSDC Master Catalog

Two Line Element Set (TLE):
1 59865U 24098H   26252.19155691  .00000093  00000-0  12924-4 0  9994
2 59865  43.0033 321.3875 0001248 210.9270 149.1508 15.27573703129913
Source of the keplerian elements: AFSPC